QPF
0.00 0.00 0.00 0.00 0.00 0.00 0.00 0.00 0.00 0.00 0.00 0.00 0.00 0.00 0.00 0.00 0.00 0.00 0.00 0.00 0.00 0.00 0.00 0.00 0.00 0.00 0.00 0.00 0.00 0.00 0.00 0.00 0.00 0.00 0.00 0.00 0.00 0.00 0.00 0.00 0.00 0.00 0.00 0.00 0.00
0.00 0.00 0.00 0.00 0.00 0.00 0.00 0.00 0.00 0.00 0.00 0.00 0.00 0.00 0.00 0.00 0.00 0.00 0.00 0.00 0.00 0.00 0.00 0.00 0.00 0.00 0.00 0.00 0.00 0.00 0.00 0.00 0.00 0.00 0.00 0.00 0.00 0.00 0.00 0.00 0.00 0.00 0.00 0.00 0.00
0.00 0.00 0.00 0.00 0.00 0.00 0.00 0.00 0.00 0.00 0.00 0.00 0.00 0.00 0.00 0.00 0.00 0.00 0.00 0.00 0.00 0.00 0.00 0.00 0.00 0.00 0.00 0.00 0.00 0.00 0.00 0.00 0.00 0.00 0.00 0.00 0.00 0.00 0.00 0.00 0.00 0.00 0.00 0.00 0.00
0.00 0.00 0.00 0.00 0.00 0.00 0.00 0.00 0.00 0.00 0.00 0.00 0.00 0.00 0.00 0.00 0.00 0.00 0.00 0.00 0.00 0.00 0.00 0.00 0.00 0.00 0.00 0.00 0.00 0.00 0.00 0.00 0.00 0.00 0.00 0.00 0.00 0.00 0.00 0.00 0.00 0.00 0.00 0.00 0.00
0.00 0.00 0.00 0.00 0.00 0.00 0.00 0.00 0.00 0.00 0.00 0.00 0.00 0.00 0.00 0.00 0.00 0.00 0.00 0.00 0.00 0.00 0.00 0.00 0.00 0.00 0.00 0.00 0.00 0.00 0.00 0.00 0.00 0.00 0.00 0.00 0.00 0.00 0.00 0.00 0.00 0.00 0.00 0.00 0.00
0.00 0.00 0.00 0.00 0.00 0.00 0.00 0.00 0.00 0.00 0.00 0.00 0.00 0.00 0.00 0.00 0.00 0.00 0.00 0.00 0.00 0.00 0.00 0.00 0.00 0.00 0.00 0.00 0.00 0.00 0.00 0.00 0.00 0.00 0.00 0.00 0.00 0.00 0.00 0.00 0.00 0.00 0.00 0.00 0.00
0.00 0.00 0.00 0.00 0.00 0.00 0.00 0.00 0.00 0.00 0.00 0.00 0.00 0.00 0.00 0.00 0.00 0.00 0.00 0.00 0.00 0.00 0.00 0.00 0.00 0.00 0.00 0.00 0.00 0.00 0.00 0.00 0.00 0.00 0.00 0.00 0.00 0.00 0.00 0.00 0.00 0.00 0.00 0.00 0.00
0.00 0.00 0.00 0.00 0.00 0.00 0.00 0.00 0.00 0.00 0.00 0.00 0.00 0.00 0.00 0.00 0.00 0.00 0.00 0.00 0.00 0.00 0.00 0.00 0.00 0.00 0.00 0.00 0.00 0.00 0.00 0.00 0.00 0.00 0.00 0.00 0.00 0.00 0.00 0.00 0.00 0.00 0.00 0.00 0.00
0.00 0.00 0.00 0.00 0.00 0.00 0.00 0.00 0.00 0.00 0.00 0.00 0.00 0.00 0.00 0.00 0.00 0.00 0.00 0.00 0.00 0.00 0.00 0.00 0.00 0.00 0.00 0.00 0.00 0.00 0.00 0.00 0.00 0.00 0.00 0.00 0.00 0.00 0.00 0.00 0.00 0.00 0.00 0.00 0.00
0.00 0.00 0.00 0.00 0.00 0.00 0.00 0.00 0.00 0.00 0.00 0.00 0.00 0.00 0.00 0.00 0.00 0.00 0.00 0.00 0.00 0.00 0.00 0.00 0.00 0.00 0.00 0.00 0.00 0.00 0.00 0.00 0.00 0.00 0.00 0.00 0.00 0.00 0.00 0.00 0.00 0.00 0.00 0.00 0.00
0.00 0.00 0.00 0.00 0.00 0.00 0.00 0.00 0.00 0.00 0.00 0.00 0.00 0.00 0.00 0.00 0.00 0.00 0.00 0.00 0.00 0.00 0.00 0.00 0.00 0.00 0.00 0.00 0.00 0.00 0.00 0.00 0.00 0.00 0.00 0.00 0.00 0.00 0.00 0.00 0.00 0.00 0.00 0.00 0.00
0.00 0.00 0.00 0.00 0.00 0.00 0.00 0.00 0.00 0.00 0.00 0.00 0.00 0.00 0.00 0.00 0.00 0.00 0.00 0.00 0.00 0.00 0.00 0.00 0.00 0.00 0.00 0.00 0.00 0.00 0.00 0.00 0.00 0.00 0.00 0.00 0.00 0.00 0.00 0.00 0.00 0.00 0.00 0.00 0.00
0.00 0.00 0.00 0.00 0.00 0.00 0.00 0.00 0.00 0.00 0.00 0.00 0.00 0.00 0.00 0.00 0.00 0.00 0.00 0.00 0.00 0.00 0.00 0.00 0.00 0.00 0.00 0.00 0.00 0.00 0.00 0.00 0.00 0.00 0.00 0.00 0.00 0.00 0.00 0.00 0.00 0.00 0.00 0.00 0.00
0.00 0.00 0.00 0.00 0.00 0.00 0.00 0.00 0.00 0.00 0.00 0.00 0.00 0.00 0.00 0.00 0.00 0.00 0.00 0.00 0.00 0.00 0.00 0.00 0.00 0.00 0.00 0.00 0.00 0.00 0.00 0.00 0.00 0.00 0.00 0.00 0.00 0.00 0.00 0.00 0.00 0.00 0.00 0.00 0.00
0.00 0.00 0.00 0.00 0.00 0.00 0.00 0.00 0.00 0.00 0.00 0.00 0.00 0.00 0.00 0.00 0.00 0.00 0.00 0.00 0.00 0.00 0.00 0.00 0.00 0.00 0.00 0.00 0.00 0.00 0.00 0.00 0.00 0.00 0.00 0.00 0.00 0.00 0.00 0.00 0.00 0.00 0.00 0.00 0.00
0.00 0.00 0.01 0.00 0.00 0.00 0.00 0.00 0.00 0.00 0.00 0.00 0.00 0.00 0.00 0.00 0.00 0.00 0.00 0.00 0.00 0.00 0.00 0.00 0.00 0.00 0.00 0.00 0.00 0.00 0.00 0.00 0.00 0.00 0.01 0.00 0.00 0.00 0.00 0.00 0.00 0.00 0.00 0.00 0.00
0.00 0.00 0.00 0.00 0.00 0.00 0.00 0.00 0.00 0.00 0.00 0.00 0.00 0.00 0.00 0.00 0.00 0.00 0.00 0.00 0.00 0.00 0.00 0.00 0.00 0.00 0.00 0.00 0.00 0.00 0.00 0.01 0.01 0.01 0.01 0.00 0.00 0.00 0.00 0.00 0.00 0.00 0.00 0.00 0.00
0.01 0.01 0.00 0.00 0.00 0.00 0.00 0.00 0.00 0.00 0.00 0.00 0.00 0.00 0.00 0.00 0.00 0.00 0.00 0.00 0.00 0.00 0.00 0.00 0.00 0.00 0.00 0.00 0.00 0.00 0.00 0.02 0.02 0.00 0.00 0.00 0.00 0.00 0.00 0.00 0.00 0.00 0.00 0.00 0.00
0.00 0.00 0.00 0.00 0.00 0.00 0.01 0.04 0.00 0.00 0.00 0.00 0.00 0.00 0.02 0.01 0.00 0.00 0.00 0.00 0.00 0.00 0.00 0.00 0.00 0.00 0.00 0.00 0.00 0.01 0.02 0.01 0.08 0.02 0.01 0.00 0.00 0.00 0.00 0.00 0.00 0.00 0.00 0.00 0.00
0.00 0.00 0.00 0.00 0.00 0.00 0.02 0.01 0.00 0.00 0.00 0.00 0.00 0.02 0.04 0.02 0.00 0.00 0.00 0.00 0.00 0.00 0.00 0.00 0.00 0.00 0.00 0.00 0.00 0.01 0.05 0.06 0.04 0.03 0.02 0.00 0.00 0.00 0.00 0.00 0.00 0.00 0.00 0.00 0.00
0.00 0.00 0.00 0.00 0.00 0.02 0.02 0.00 0.00 0.00 0.00 0.00 0.00 0.06 0.06 0.02 0.00 0.00 0.02 0.02 0.01 0.00 0.00 0.00 0.00 0.00 0.00 0.00 0.00 0.01 0.06 0.11 0.04 0.01 0.03 0.03 0.03 0.00 0.00 0.00 0.00 0.00 0.00 0.00 0.00
0.00 0.00 0.00 0.01 0.02 0.01 0.00 0.00 0.00 0.00 0.00 0.00 0.00 0.02 0.09 0.02 0.01 0.00 0.00 0.02 0.02 0.01 0.00 0.00 0.00 0.00 0.00 0.00 0.00 0.00 0.02 0.07 0.11 0.03 0.00 0.01 0.00 0.00 0.00 0.00 0.00 0.00 0.00 0.00 0.00
0.00 0.00 0.00 0.00 0.11 0.07 0.01 0.00 0.00 0.00 0.00 0.00 0.00 0.01 0.03 0.03 0.02 0.01 0.01 0.00 0.00 0.00 0.00 0.00 0.00 0.00 0.00 0.00 0.01 0.03 0.02 0.05 0.11 0.07 0.01 0.00 0.00 0.05 0.01 0.00 0.00 0.00 0.00 0.00 0.00
0.01 0.01 0.00 0.00 0.00 0.01 0.05 0.03 0.00 0.00 0.00 0.00 0.00 0.00 0.01 0.04 0.01 0.00 0.00 0.00 0.00 0.00 0.00 0.00 0.00 0.00 0.00 0.00 0.02 0.03 0.05 0.10 0.17 0.15 0.03 0.00 0.00 0.16 0.12 0.02 0.00 0.00 0.00 0.00 0.00
0.01 0.00 0.00 0.00 0.03 0.08 0.01 0.00 0.01 0.00 0.00 0.00 0.00 0.00 0.00 0.03 0.01 0.00 0.00 0.01 0.00 0.00 0.00 0.00 0.00 0.00 0.00 0.00 0.00 0.00 0.00 0.00 0.02 0.05 0.06 0.01 0.00 0.11 0.33 0.19 0.04 0.00 0.00 0.01 0.01
0.03 0.01 0.01 0.00 0.12 0.24 0.16 0.18 0.07 0.05 0.01 0.03 0.03 0.01 0.01 0.02 0.01 0.00 0.00 0.00 0.00 0.00 0.00 0.00 0.00 0.00 0.00 0.00 0.00 0.00 0.00 0.00 0.00 0.00 0.02 0.01 0.01 0.08 0.18 0.31 0.19 0.03 0.01 0.02 0.02
0.01 0.02 0.03 0.01 0.01 0.03 0.12 0.18 0.23 0.25 0.08 0.00 0.01 0.00 0.00 0.00 0.00 0.00 0.00 0.00 0.00 0.00 0.00 0.00 0.00 0.01 0.00 0.00 0.00 0.00 0.00 0.00 0.00 0.00 0.00 0.00 0.00 0.07 0.27 0.22 0.27 0.09 0.04 0.01 0.01
MSLP
1021.20 1020.82 1020.58 1020.17 1019.77 1019.39 1019.00 1018.70 1018.26 1017.95 1017.41 1017.11 1016.82 1016.18 1015.75 1015.08 1013.98 1013.12 1012.24 1009.62 1009.60 1009.26 1009.41 1009.78 1010.09 1010.28 1010.42 1010.73 1010.86 1011.33 1012.22 1011.81 1011.03 1010.14 1008.34 1007.17 1006.80 1005.83 1005.64 1005.59 1005.27 1005.08 1004.88 1004.28 1004.43
1021.23 1020.91 1020.51 1020.17 1019.99 1019.52 1019.00 1018.76 1018.52 1018.15 1017.63 1017.07 1016.52 1015.99 1015.67 1014.82 1013.88 1012.14 1009.01 1008.79 1009.02 1009.48 1009.72 1009.63 1009.78 1010.20 1010.65 1010.63 1010.78 1011.14 1011.05 1010.28 1009.16 1008.64 1007.99 1007.27 1007.00 1006.34 1006.10 1005.40 1005.14 1005.13 1004.78 1004.74 1004.77
1021.28 1021.01 1020.47 1019.99 1019.77 1019.48 1019.15 1018.83 1018.49 1018.11 1017.60 1017.02 1016.39 1015.88 1015.32 1014.87 1013.59 1010.07 1008.23 1008.57 1009.07 1009.42 1009.57 1009.43 1009.53 1009.90 1010.45 1010.37 1010.34 1009.90 1009.09 1008.87 1008.20 1007.42 1007.55 1007.28 1006.86 1006.62 1006.31 1005.68 1004.99 1005.25 1004.93 1005.16 1005.10
1021.34 1021.01 1020.79 1020.13 1019.78 1019.32 1019.05 1018.63 1018.26 1017.93 1017.59 1017.03 1016.42 1015.93 1015.16 1015.04 1012.63 1009.10 1008.63 1008.77 1008.79 1009.22 1009.48 1009.27 1009.51 1009.89 1010.20 1010.05 1009.53 1009.36 1008.45 1007.92 1007.57 1007.38 1007.46 1007.11 1006.37 1006.25 1006.10 1005.58 1004.63 1004.73 1004.91 1005.45 1005.10
1021.15 1020.92 1020.46 1020.22 1019.64 1019.14 1018.79 1018.29 1017.86 1017.55 1017.27 1016.92 1016.40 1016.03 1015.45 1014.84 1011.88 1008.90 1008.94 1008.83 1008.77 1009.07 1009.20 1009.08 1009.35 1009.56 1009.69 1009.41 1009.00 1008.64 1007.91 1007.52 1007.14 1007.03 1006.84 1006.46 1006.04 1005.63 1004.62 1004.62 1003.81 1004.05 1004.45 1004.74 1004.68
1021.11 1020.87 1020.48 1019.98 1019.45 1018.93 1018.34 1017.93 1017.30 1016.90 1016.70 1016.56 1016.32 1016.16 1015.78 1014.25 1009.59 1008.99 1009.15 1008.88 1008.65 1008.72 1008.70 1008.82 1008.67 1008.95 1009.02 1008.99 1008.85 1007.84 1007.44 1007.05 1006.83 1006.63 1006.50 1006.27 1004.93 1005.33 1003.84 1003.81 1003.43 1003.73 1003.79 1003.86 1003.99
1021.04 1020.77 1020.47 1019.76 1019.31 1018.61 1017.97 1017.38 1016.67 1016.14 1015.85 1015.90 1016.01 1015.96 1015.01 1011.53 1009.53 1009.22 1009.46 1009.22 1008.46 1008.27 1008.42 1008.23 1008.23 1008.70 1008.65 1008.73 1008.20 1007.84 1007.46 1006.84 1006.38 1006.02 1006.05 1005.70 1003.84 1004.32 1003.43 1003.51 1003.13 1003.08 1003.11 1003.11 1003.11
1021.03 1020.66 1020.46 1019.74 1019.20 1018.45 1017.66 1016.82 1015.74 1014.82 1014.61 1014.68 1015.29 1015.49 1013.28 1009.84 1009.38 1009.32 1008.69 1008.37 1007.97 1007.98 1008.14 1007.77 1007.95 1008.53 1008.75 1008.56 1008.26 1008.09 1007.67 1007.04 1005.79 1005.54 1005.38 1005.65 1002.60 1003.09 1002.76 1002.80 1002.62 1002.48 1002.63 1002.88 1002.74
1020.97 1020.51 1020.29 1019.76 1019.04 1018.21 1017.31 1015.87 1014.51 1013.91 1013.36 1013.75 1014.71 1014.68 1011.79 1009.26 1008.97 1007.69 1007.93 1007.58 1007.16 1007.19 1007.34 1007.38 1007.97 1008.38 1008.71 1009.18 1009.35 1008.72 1007.99 1007.19 1006.66 1005.50 1005.26 1005.13 1003.25 1002.56 1002.33 1002.44 1002.31 1002.17 1001.91 1002.21 1002.29
1020.84 1020.46 1020.09 1019.66 1018.90 1018.18 1016.97 1014.94 1013.68 1013.82 1013.85 1014.02 1014.12 1014.49 1010.77 1008.80 1007.87 1007.52 1007.33 1007.26 1007.14 1007.15 1007.30 1007.45 1008.32 1008.78 1009.29 1009.68 1009.26 1009.22 1008.73 1007.64 1006.80 1005.60 1005.00 1004.60 1003.32 1002.44 1002.23 1002.21 1001.90 1001.63 1001.37 1001.34 1001.64
1020.70 1020.38 1020.01 1019.73 1018.91 1018.20 1017.02 1015.49 1015.02 1014.30 1014.41 1013.77 1013.16 1011.89 1009.65 1008.56 1007.58 1007.41 1007.35 1007.22 1007.01 1007.35 1007.83 1008.00 1008.55 1009.07 1009.32 1009.31 1009.12 1009.19 1008.85 1007.82 1007.03 1006.23 1005.34 1004.34 1003.13 1002.21 1001.83 1001.76 1001.30 1000.98 1000.75 1000.61 1000.45
1020.89 1020.24 1019.95 1019.71 1019.03 1018.46 1018.11 1017.61 1017.98 1018.00 1014.84 1012.52 1011.21 1010.45 1009.09 1009.08 1008.74 1007.38 1007.40 1007.27 1007.36 1007.87 1008.15 1008.65 1008.47 1008.68 1008.82 1009.13 1009.23 1009.24 1008.88 1007.94 1006.74 1005.88 1005.21 1004.28 1002.54 1001.90 1001.38 1000.85 1000.61 1000.32 1000.01 999.97 1000.43
1020.86 1020.45 1020.03 1019.56 1018.96 1018.76 1018.75 1018.01 1017.69 1017.19 1015.72 1010.71 1009.14 1007.87 1007.00 1007.66 1007.36 1006.59 1007.48 1007.10 1007.45 1007.99 1008.32 1008.60 1008.37 1008.38 1008.55 1008.81 1009.19 1009.00 1008.72 1008.14 1007.37 1006.28 1005.23 1004.62 1002.16 1001.33 1000.35 999.94 999.74 999.31 998.90 998.87 999.58
1020.83 1020.52 1020.05 1019.53 1019.20 1019.24 1018.47 1017.80 1017.23 1016.82 1015.30 1010.13 1007.84 1005.69 1005.53 1006.01 1006.04 1005.43 1005.85 1006.63 1007.29 1007.67 1008.31 1008.48 1008.35 1008.45 1008.48 1008.64 1008.74 1008.65 1008.37 1007.95 1007.40 1006.81 1005.79 1005.01 1002.35 1000.77 1000.51 999.46 998.99 998.44 998.52 998.50 999.05
1020.82 1020.54 1020.10 1019.71 1019.94 1019.67 1019.04 1017.89 1016.94 1016.61 1014.62 1008.23 1006.01 1004.68 1004.80 1005.19 1004.18 1004.69 1005.10 1005.80 1006.52 1007.35 1008.01 1008.15 1008.30 1008.61 1008.70 1008.44 1008.50 1008.48 1008.38 1007.93 1007.53 1007.09 1006.24 1005.26 1004.47 1000.35 999.92 998.89 998.06 997.86 997.73 997.68 998.36
1020.70 1020.55 1020.23 1019.98 1019.98 1019.45 1018.87 1017.86 1017.29 1017.00 1013.05 1008.38 1005.81 1005.29 1005.47 1004.69 1004.08 1004.48 1004.95 1005.43 1006.38 1007.31 1007.84 1007.98 1008.04 1008.43 1008.48 1008.25 1008.35 1008.44 1008.35 1008.01 1007.71 1007.48 1005.97 1004.90 1004.38 1000.19 999.36 998.28 997.32 996.89 996.95 997.34 997.83
1020.65 1020.52 1020.38 1019.92 1019.57 1019.18 1018.89 1018.50 1017.96 1015.85 1011.91 1009.32 1007.70 1007.17 1006.42 1005.37 1004.87 1004.73 1005.40 1005.94 1006.57 1007.65 1008.22 1008.30 1008.12 1008.12 1008.28 1008.74 1008.56 1008.58 1008.74 1008.28 1008.06 1007.39 1005.01 1003.56 1002.92 999.87 998.39 997.52 996.95 996.46 996.08 996.64 997.08
1020.56 1020.36 1020.05 1019.26 1019.10 1019.32 1019.38 1018.97 1017.26 1013.78 1012.41 1010.39 1009.38 1007.51 1006.48 1005.80 1005.41 1005.37 1005.88 1006.54 1006.84 1007.11 1008.00 1008.31 1008.31 1008.08 1008.23 1008.47 1008.30 1008.47 1008.53 1007.91 1007.15 1006.40 1004.51 1003.24 1001.33 998.81 997.47 996.55 996.07 996.12 995.90 995.90 996.63
1020.50 1020.64 1019.99 1018.80 1019.04 1019.48 1020.04 1018.49 1015.71 1014.09 1012.88 1011.83 1010.15 1008.73 1007.84 1006.93 1007.15 1005.54 1006.02 1006.32 1006.52 1006.84 1007.48 1008.10 1008.17 1007.76 1007.94 1007.91 1008.17 1008.26 1008.06 1007.77 1007.58 1006.57 1005.15 1003.45 1000.72 998.54 998.05 996.56 996.63 996.27 995.86 995.37 995.72
1020.77 1020.49 1019.44 1018.73 1018.91 1019.46 1019.81 1017.71 1015.75 1014.29 1013.69 1012.86 1012.08 1011.52 1010.73 1009.63 1008.20 1006.74 1006.35 1006.69 1006.69 1006.69 1006.81 1007.91 1008.20 1008.05 1007.83 1007.70 1007.98 1008.18 1008.26 1008.05 1007.96 1006.87 1005.17 1003.14 1001.33 1000.32 999.63 998.71 997.82 996.56 995.73 994.94 995.57
1020.94 1020.68 1018.94 1018.63 1019.00 1019.41 1018.79 1017.74 1016.31 1014.98 1014.35 1013.74 1012.93 1012.55 1011.83 1011.38 1009.25 1007.48 1007.00 1007.04 1006.83 1007.06 1007.12 1008.07 1008.56 1008.74 1008.20 1007.73 1007.50 1007.97 1007.98 1008.30 1007.56 1006.77 1005.74 1004.04 1001.90 1000.93 1000.83 1000.28 998.78 997.06 996.10 995.17 995.25
1021.10 1020.93 1019.27 1018.89 1019.48 1018.93 1018.22 1017.50 1016.77 1015.65 1014.92 1014.54 1013.47 1012.93 1013.14 1012.29 1010.29 1008.18 1007.34 1007.26 1007.51 1007.40 1008.26 1008.91 1009.25 1009.29 1008.38 1007.35 1007.34 1007.47 1007.71 1007.81 1007.24 1006.60 1005.73 1004.68 1002.42 1001.02 1000.62 1000.45 999.40 997.74 996.82 995.73 996.04
1021.20 1020.47 1019.09 1019.22 1019.42 1018.78 1018.29 1017.46 1016.81 1015.81 1015.09 1014.56 1013.55 1013.10 1013.24 1012.74 1011.88 1009.02 1007.89 1008.00 1007.67 1007.96 1008.91 1009.35 1009.79 1009.85 1008.46 1007.95 1007.83 1007.81 1007.85 1007.82 1007.47 1006.65 1005.59 1004.80 1002.57 1001.48 1000.61 1000.65 999.92 999.24 998.40 997.01 997.20
1021.23 1020.85 1019.94 1019.48 1019.17 1018.87 1018.31 1017.17 1016.56 1015.42 1014.56 1014.17 1013.52 1013.24 1013.00 1012.72 1011.53 1009.80 1008.43 1008.20 1008.29 1008.68 1009.25 1009.65 1010.14 1010.36 1009.96 1009.07 1008.88 1008.36 1007.94 1007.70 1007.81 1006.81 1005.43 1004.37 1002.94 1002.36 1001.59 1001.90 1001.37 1001.07 1001.00 999.75 999.36
1021.05 1020.74 1020.12 1019.70 1019.32 1019.15 1018.20 1017.15 1015.97 1014.95 1013.94 1013.39 1012.89 1012.56 1012.37 1012.32 1011.36 1009.65 1008.54 1008.71 1009.08 1009.43 1009.95 1010.24 1010.68 1010.86 1010.17 1009.46 1008.84 1008.40 1007.71 1007.19 1006.90 1006.21 1005.56 1004.18 1003.63 1002.80 1002.61 1003.32 1003.60 1003.40 1002.52 1001.98 1001.79
1020.62 1020.45 1019.80 1019.35 1018.87 1018.65 1018.04 1016.41 1015.48 1014.38 1014.03 1012.63 1012.25 1011.86 1011.63 1011.58 1010.60 1009.59 1009.08 1009.23 1009.61 1010.13 1010.23 1010.64 1011.09 1011.01 1010.30 1009.30 1008.79 1008.01 1006.77 1006.09 1005.93 1005.19 1004.86 1004.18 1003.85 1003.72 1003.28 1003.29 1004.09 1004.04 1003.79 1003.69 1003.99
1020.26 1020.13 1019.99 1019.29 1018.76 1018.18 1017.45 1016.57 1015.31 1014.46 1012.93 1012.21 1011.90 1011.79 1010.85 1010.06 1009.66 1009.63 1009.55 1009.38 1009.64 1009.89 1010.50 1011.05 1011.36 1011.41 1010.97 1009.92 1008.89 1007.04 1005.73 1005.44 1005.13 1004.25 1003.91 1003.47 1002.95 1003.16 1003.59 1003.82 1004.37 1005.10 1005.31 1005.92 1006.26
Thickness
5582 5585 5585 5587 5590 5593 5595 5596 5600 5604 5608 5611 5614 5619 5624 5630 5639 5647 5652 5676 5678 5681 5679 5677 5674 5673 5673 5669 5671 5665 5645 5640 5656 5664 5682 5696 5694 5704 5707 5700 5705 5710 5708 5719 5723
5571 5573 5575 5577 5577 5581 5585 5587 5590 5592 5597 5602 5606 5611 5615 5623 5630 5642 5673 5674 5673 5670 5668 5667 5665 5664 5657 5659 5660 5653 5643 5654 5671 5678 5678 5682 5684 5687 5688 5691 5694 5700 5709 5711 5714
5559 5560 5564 5567 5567 5570 5573 5576 5580 5583 5587 5593 5598 5602 5608 5613 5622 5650 5669 5667 5664 5662 5661 5662 5662 5658 5649 5652 5653 5658 5667 5666 5676 5681 5675 5672 5674 5682 5675 5675 5689 5685 5697 5699 5704
5546 5547 5547 5553 5555 5559 5561 5565 5569 5572 5575 5582 5589 5593 5598 5601 5622 5652 5655 5655 5656 5654 5652 5652 5650 5645 5641 5642 5650 5650 5664 5671 5673 5672 5666 5666 5676 5669 5668 5675 5693 5691 5692 5692 5696
5535 5535 5538 5539 5543 5547 5550 5555 5559 5562 5566 5571 5577 5581 5587 5589 5611 5644 5645 5645 5648 5646 5643 5644 5638 5636 5634 5641 5644 5651 5660 5665 5668 5665 5663 5666 5665 5669 5677 5684 5696 5691 5691 5692 5694
5524 5524 5527 5529 5531 5535 5540 5543 5550 5554 5557 5561 5565 5568 5573 5574 5625 5633 5633 5637 5638 5638 5638 5636 5636 5637 5636 5636 5636 5650 5656 5659 5660 5658 5656 5654 5670 5659 5681 5685 5688 5685 5688 5692 5693
5512 5513 5513 5517 5519 5525 5531 5535 5541 5546 5552 5554 5555 5558 5569 5590 5617 5621 5620 5622 5632 5634 5630 5634 5635 5630 5633 5628 5639 5644 5640 5649 5652 5654 5644 5652 5665 5651 5676 5676 5680 5681 5685 5689 5697
5499 5501 5500 5504 5507 5514 5521 5527 5535 5545 5550 5551 5548 5549 5569 5599 5607 5609 5618 5620 5624 5627 5626 5629 5629 5623 5621 5626 5627 5628 5632 5629 5652 5649 5648 5638 5657 5666 5673 5668 5670 5675 5676 5681 5693
5490 5492 5490 5491 5496 5503 5511 5522 5532 5541 5546 5546 5542 5543 5566 5593 5597 5613 5612 5616 5623 5624 5623 5623 5618 5613 5615 5605 5598 5608 5612 5618 5623 5644 5639 5629 5642 5663 5667 5662 5662 5669 5677 5678 5687
5481 5483 5483 5484 5488 5494 5504 5521 5528 5529 5531 5532 5535 5533 5568 5585 5596 5601 5604 5608 5609 5612 5609 5608 5596 5594 5590 5588 5588 5592 5597 5606 5609 5631 5632 5619 5629 5649 5656 5653 5654 5664 5675 5680 5682
5473 5473 5473 5471 5476 5481 5494 5505 5504 5513 5515 5525 5535 5546 5565 5575 5586 5589 5593 5595 5600 5598 5587 5593 5584 5580 5584 5587 5595 5593 5592 5599 5607 5615 5615 5619 5627 5641 5648 5645 5654 5668 5676 5681 5689
5460 5463 5462 5458 5460 5463 5468 5473 5468 5467 5493 5520 5536 5542 5558 5555 5561 5576 5581 5583 5584 5575 5579 5578 5575 5585 5586 5583 5583 5583 5580 5588 5603 5612 5608 5609 5621 5634 5643 5651 5656 5662 5677 5683 5683
5447 5447 5447 5447 5447 5447 5447 5453 5453 5458 5470 5533 5542 5555 5563 5556 5561 5570 5567 5573 5573 5569 5569 5565 5579 5586 5581 5578 5574 5577 5575 5579 5583 5595 5603 5598 5613 5627 5647 5652 5656 5670 5682 5688 5686
5434 5433 5433 5434 5430 5426 5432 5438 5440 5443 5452 5519 5537 5556 5562 5560 5556 5575 5572 5569 5563 5564 5563 5564 5572 5572 5573 5571 5572 5566 5578 5579 5581 5578 5575 5588 5586 5620 5630 5643 5654 5671 5674 5680 5685
5421 5419 5418 5416 5408 5407 5416 5421 5427 5428 5430 5529 5538 5554 5555 5554 5571 5565 5570 5566 5559 5559 5559 5561 5560 5559 5559 5564 5567 5565 5568 5572 5573 5566 5567 5576 5564 5614 5627 5635 5652 5669 5678 5682 5686
5409 5405 5402 5399 5392 5397 5399 5406 5410 5404 5428 5503 5527 5527 5534 5547 5561 5559 5560 5562 5556 5551 5554 5554 5559 5556 5555 5560 5561 5563 5561 5562 5563 5559 5556 5574 5568 5603 5619 5639 5659 5675 5681 5681 5682
5398 5392 5388 5385 5383 5389 5390 5390 5387 5390 5465 5486 5496 5504 5515 5529 5542 5547 5543 5540 5536 5532 5533 5542 5545 5552 5552 5545 5550 5552 5548 5532 5534 5539 5561 5589 5578 5609 5634 5651 5660 5668 5681 5681 5686
5387 5381 5378 5379 5381 5379 5375 5380 5382 5433 5440 5471 5475 5497 5510 5522 5528 5530 5526 5524 5533 5536 5519 5519 5530 5539 5543 5540 5542 5540 5543 5542 5552 5546 5565 5586 5578 5614 5648 5661 5669 5671 5680 5684 5684
5375 5369 5367 5375 5372 5368 5357 5371 5402 5418 5432 5440 5464 5480 5491 5499 5498 5521 5520 5527 5528 5531 5530 5518 5528 5541 5536 5540 5541 5540 5541 5547 5542 5547 5553 5564 5597 5629 5631 5653 5648 5658 5673 5681 5689
5360 5357 5357 5366 5362 5355 5344 5369 5391 5411 5412 5421 5434 5439 5449 5461 5488 5504 5512 5515 5521 5527 5530 5523 5521 5533 5536 5539 5536 5533 5536 5540 5531 5539 5551 5571 5592 5594 5602 5617 5635 5652 5670 5685 5688
5345 5337 5351 5353 5349 5344 5344 5356 5375 5395 5398 5406 5420 5420 5434 5440 5474 5495 5503 5504 5513 5515 5521 5515 5518 5519 5528 5529 5532 5532 5531 5524 5533 5537 5547 5561 5579 5595 5591 5605 5626 5648 5663 5679 5688
5329 5310 5339 5338 5327 5330 5341 5353 5364 5374 5382 5388 5413 5426 5414 5421 5452 5486 5497 5502 5502 5509 5500 5498 5505 5503 5510 5531 5532 5532 5531 5530 5534 5542 5544 5550 5567 5593 5596 5606 5622 5640 5656 5675 5680
5316 5323 5328 5323 5319 5330 5332 5344 5350 5362 5370 5382 5402 5415 5409 5412 5424 5475 5487 5490 5495 5494 5488 5489 5495 5483 5511 5521 5522 5523 5524 5523 5524 5531 5540 5540 5566 5588 5599 5601 5615 5625 5639 5659 5663
5308 5307 5304 5310 5306 5312 5327 5343 5340 5364 5374 5382 5394 5404 5413 5408 5429 5463 5483 5486 5487 5485 5488 5487 5478 5482 5488 5496 5500 5502 5516 5517 5506 5523 5535 5544 5568 5572 5584 5586 5597 5607 5612 5629 5639
5300 5294 5297 5285 5307 5312 5316 5327 5347 5360 5378 5386 5397 5406 5411 5409 5425 5459 5475 5473 5475 5479 5473 5470 5468 5471 5479 5490 5500 5503 5512 5519 5519 5522 5522 5549 5550 5568 5569 5568 5576 5584 5596 5604 5613
5290 5293 5299 5298 5318 5315 5322 5344 5353 5363 5366 5388 5399 5410 5417 5413 5438 5445 5461 5466 5465 5462 5466 5463 5461 5467 5473 5491 5499 5506 5519 5525 5522 5530 5529 5540 5542 5554 5564 5569 5569 5574 5585 5588 5589
5290 5290 5297 5304 5313 5317 5326 5337 5348 5354 5377 5393 5397 5397 5411 5431 5438 5444 5448 5454 5460 5459 5458 5458 5452 5453 5448 5475 5481 5497 5516 5524 5525 5535 5536 5535 5554 5561 5560 5566 5567 5565 5566 5564 5564